Location: Casone le Fosse
(44.6547°N, 12.1103°E)
Time: 03:35:15
(UTC+00:00)

Cosmos 1354 Rocket - Pass Details

Date: 29 October 2020
Orbit: 764 x 783 km, 74.0° (Epoch: 01 December)

Event Time Altitude Azimuth Distance (km) Brightness Sun altitude
Rises 17:28:57 0° 342° (NNW) 3,247 7.4 -15.6°
Reaches altitude 10° 17:31:23 10° 347° (NNW) 2,319 6.6 -16.0°
Maximum altitude 17:36:33 55° 65° (ENE) 926 4.1 -16.9°
Enters shadow 17:41:03 14° 141° (SE) 2,069 5.9 -17.7°
